パンスターズ彗星

P/2017 S9 ( PanSTARRS )

English version
Home page
Updated on November 23, 2017

---------------------------------------------------------------------

・ プロフィール

発見日 2017年9月30日
発見光度 22.0等
発見者 Pan-STARRS 1 telescope (Haleakala)

・ 軌道要素

Epoch 2017 July 26.0 TT = JDT 2457960.5
T 2017 July 23.54927 TT                                 MPCW
q   2.1951277            (2000.0)            P               Q
n   0.17571407     Peri.  237.88962     +0.89850769     -0.41741878
a   3.1569305      Node   146.21891     +0.43749329     +0.87682125
e   0.3046639      Incl.   14.13815     -0.03582660     +0.23863372
P   5.61
From 38 observations 2017 Sept. 19-Oct. 22, mean residual 0".4.

・ 光度変化

        m1 = 16.5 + 5 logΔ + 10.0 log r

---------------------------------------------------------------------

軌道要素はM.P.E.C. 2017-V13に掲載されたものです。
光度グラフはComet for Windowsで作成したものです。

---------------------------------------------------------------------

Copyright(C) Seiichi Yoshida (comet@aerith.net). All rights reserved.